User: anonymous   Login
Location: Düngen
(52.0952°N, 10.0219°E)
Time: 11:54:18
(UTC+00:00)
Language:

Meteor 1-31 Rocket - Orbit

View from above orbital plane
View from above orbital plane
View from above satellite
View from above satellite

Ground track
Ground track

The orbit is defined by the following mean orbital elements,

1 12586U          26138.13223457 +.00000000 +00000-0 +14337-3 0 00003
2 12586  97.6213 182.6516 0013349 113.6826 246.5818 15.34312254    02
Epoch (UTC): 18 May 2026 03:10:25
Eccentricity: 0.0013349
inclination: 97.6213°
perigee height: 454 km
apogee height: 472 km
right ascension of ascending node: 182.6516°
argument of perigee: 113.6826°
revolutions per day: 15.34312254
mean anomaly at epoch: 246.5818°

The dashed part of the orbit path shows where the satellite is in the earth's shadow,  

DLR